Location: Bonnesvalyn
(49.1218°N, 3.3177°E)
Time: 12:36:00
(UTC+00:00)

Cosmos 2058 - Pass Details

Date: 09 February 2023
Orbit: 555 x 578 km, 82.5° (Epoch: 21 March)

Event Time Altitude Azimuth Distance (km) Brightness Sun altitude
Rises 18:04:10 0° 153° (SSE) 2,785 6.2 -11.5°
Reaches altitude 10° 18:06:42 10° 138° (SE) 1,890 5.2 -11.9°
Maximum altitude 18:09:56 22° 88° (E) 1,284 4.1 -12.4°
Enters shadow 18:12:40 12° 41° (NE) 1,748 4.9 -12.9°
